Regional Weather Roundup
Issued by NWS Grand Forks, ND

Home | Current Version | Previous Version | Graphics & Text | Print | Product List | Glossary On
Versions: 1 2 3 4 5 6 7 8 9 10 11 12 13 14 15 16 17 18 19 20 21 22 23 24 25 26 27 28 29 30 31 32 33 34 35 36 37 38 39 40 41 42 43 44 45 46 47 48 49 50
000
ASUS43 KFGF 281210
RWRFGF
PRAIRIE TO PINES  WEATHER ROUNDUP
NATIONAL WEATHER SERVICE EASTERN NORTH DAKOTA/GRAND FORKS ND
700 AM CDT TUE APR 28 2015

 **SATELLITE DATA USED TO AUGMENT SKY COVER AT AUTOMATED STATIONS**
 *****  WEATHER ACROSS EASTERN NORTH DAKOTA  *****

CITY           SKY/WX    TMP DP  RH WIND       PRES   REMARKS
GRAND FORKS    FOG       42  42 100 N3        30.29R VSB 1/4
6HR MIN TEMP:  37; 6HR MAX TEMP:  45;

GRAND FRKS AFB FOG       36  34  93 S1        30.29R VSB 1/2
GRAND FRKS NWS   N/A     39 N/A N/A N5          N/A
DEVILS LAKE    CLOUDY    30  27  86 CALM      30.28R VSB<1/4
6HR MIN TEMP:  30; 6HR MAX TEMP:  37;

FARGO          FOG       42  41  96 N9        30.27S VSB 1/4
WAHPETON ARPT  CLOUDY    45  41  87 NW10      30.26S
$$

 ***** WEATHER ACROSS CENTRAL AND WESTERN NORTH DAKOTA  *****

CITY           SKY/WX    TMP DP  RH WIND       PRES   REMARKS
BISMARCK       PTCLDY    30  28  92 W3        30.33S FOG
6HR MIN TEMP:  28; 6HR MAX TEMP:  41;

MINOT          CLEAR     38  34  85 SW10      30.28R
6HR MIN TEMP:  37; 6HR MAX TEMP:  44;

JAMESTOWN      CLEAR     36  34  92 NW6       30.29R FOG
6HR MIN TEMP:  35; 6HR MAX TEMP:  44;

MINOT AFB      PTCLDY    35  35 100 W3        30.28R
GARRISON         N/A     30  28  92 CALM      30.30R
WILLISTON      PTCLDY    34  33  96 CALM      30.31R
6HR MIN TEMP:  34; 6HR MAX TEMP:  43;

DICKINSON      CLEAR     31  28  89 W6        30.30S
6HR MIN TEMP:  29; 6HR MAX TEMP:  36;

HETTINGER      CLEAR     28  26  92 CALM      30.33F FOG
6HR MIN TEMP:  27; 6HR MAX TEMP:  33;

$$

 *****  OTHER AIRPORT OBSERVATIONS IN OUR AREA  *****

CITY           SKY/WX    TMP DP  RH WIND       PRES   REMARKS
WALHALLA       FAIR      32  32 100 CALM      30.29R FOG
GRAFTON AIRPOR FOG       36  36 100 CALM      30.31R VSB<1/4
VALLEY CITY AR FOG       36  36 100 CALM      30.29S VSB<1/4
CANDO          FOG       28  28 100 W3        30.28S VSB<1/4
CAVALIER APRT  FOG       30  30 100 CALM      30.29S VSB<1/4
GWINNER        PTSUNNY   45  45 100 NW8       30.30R
SHEYENNE NWR     N/A     43  42  95 NW2       29.95S
ROLLA          NOT AVBL
 ***** THE ABOVE OBSERVATIONS ARE NON NWS ARE NOT QUALITY
       CONTROLLED AND MAY MIS-REPORT RAIN FOR SNOW...
$$

  *****  WEATHER ACROSS NORTHERN MINNESOTA  *****

CITY           SKY/WX    TMP DP  RH WIND       PRES   REMARKS
FLAG ISLAND    CLOUDY    41  37  87 N9        30.26R
WARROAD        CLOUDY    39  36  87 N5        30.28R
ROSEAU         MOCLDY    37  34  87 N6        30.28R
HALLOCK        FOG       37  36  93 CALM      30.29R VSB<1/4
THF RVR FALLS  CLOUDY    41  37  87 N8        30.28R
6HR MIN TEMP:  41; 6HR MAX TEMP:  45; 6HR PCP:  0.01;

BAUDETTE       CLOUDY    41  39  93 NW8       30.26R
6HR MIN TEMP:  41; 6HR MAX TEMP:  45; 6HR PCP:  0.04;

WASKISH        DRIZZLE   43  43 100 CALM      30.24S
CROOKSTON      SNOW      37  36  93 N5        30.30R VSB<1/4
$$
  *****  WEATHER ACROSS CENTRAL AND WEST MINNESOTA  *****

CITY           SKY/WX    TMP DP  RH WIND       PRES   REMARKS
FOSSTON        CLOUDY    43  41  93 N9        30.25R
BEMIDJI        CLOUDY    43  42  96 N6        30.23S
PARK RAPIDS    LGT RAIN  48  44  86 N9        30.21S
6HR MIN TEMP:  48; 6HR MAX TEMP:  55; 6HR PCP:  0.03;

ELBOW LAKE     LGT RAIN  45  45  99 NW16      30.24R
6HR MIN TEMP:  45; 6HR MAX TEMP:  51; 6HR PCP:  0.02;

WADENA         CLOUDY    46  43  87 CALM      30.22R
DETROIT LAKES  CLOUDY    45  45 100 NW10      30.24R FOG
MOORHEAD       FOG       41  41 100 N12       30.27S VSB 3/4
FERGUS FALLS   CLOUDY    45  45 100 N15       30.25S FOG
MORRIS MN      CLOUDY    46  45  93 NW17      30.21S FOG
STAPLES        CLOUDY    48  45  87 N7        30.21S
$$
  *****  WEATHER ELSEWHERE ACROSS MINNESOTA  *****

CITY           SKY/WX    TMP DP  RH WIND       PRES   REMARKS
DULUTH         FAIR      42  31  64 N8        30.16R
6HR MIN TEMP:  36; 6HR MAX TEMP:  46;

INTRNTL FALLS  CLOUDY    44  42  93 NW7       30.21S
6HR MIN TEMP:  44; 6HR MAX TEMP:  50; 6HR PCP:  0.02;

ELY            MOCLDY    37  34  87 CALM      30.17S
CLOQUET        CLOUDY    37  30  75 N5        30.16S
WHEATON        CLOUDY    45  43  93 NW9       30.27S
BRAINERD       CLOUDY    51  43  74 NW13      30.20R
6HR MIN TEMP:  37; 6HR MAX TEMP:  52;

HIBBING        LGT RAIN  49  41  74 N14       30.18R
6HR MIN TEMP:  35; 6HR MAX TEMP:  49; 6HR PCP: TRACE;

ALEXANDRIA     CLOUDY    50  43  77 NE10      30.21R
6HR MIN TEMP:  48; 6HR MAX TEMP:  53;

SAINT CLOUD    PTCLDY    48  38  68 NW9       30.17R
6HR MIN TEMP:  37; 6HR MAX TEMP:  48;

MINNEAPOLIS    MOCLDY    47  31  53 SW3       30.16R
6HR MIN TEMP:  44; 6HR MAX TEMP:  53;

$$

  *****  WEATHER ACROSS SOUTH DAKOTA  *****

CITY           SKY/WX    TMP DP  RH WIND       PRES   REMARKS
SIOUX FALLS    MOCLDY    39  32  76 CALM      30.22R
6HR MIN TEMP:  36; 6HR MAX TEMP:  46;

BROOKINGS      MOCLDY    48  43  81 N9        30.23S
WATERTOWN      CLOUDY    47  43  86 N14       30.25R
6HR MIN TEMP:  43; 6HR MAX TEMP:  48;

HURON          CLOUDY    47  43  86 N10       30.28R
6HR MIN TEMP:  46; 6HR MAX TEMP:  49;

SISSETON         N/A     46  45  96 N10       30.26R
ABERDEEN       CLEAR     44  41  89 N10       30.30R
6HR MIN TEMP:  44; 6HR MAX TEMP:  49; 6HR PCP: TRACE;

MITCHELL       CLOUDY    48  44  86 NW14      30.27S
PIERRE         CLOUDY    44  41  89 NW8       30.32R
6HR MIN TEMP:  43; 6HR MAX TEMP:  47;

MOBRIDGE       CLEAR     35  33  92 N5        30.31S FOG
RAPID CITY     PTCLDY    33  31  92 NW5       30.33S
6HR MIN TEMP:  31; 6HR MAX TEMP:  42;

$$

  *****  SOME WEATHER IN NEARBY STATES *****

CITY           SKY/WX    TMP DP  RH WIND       PRES   REMARKS
GLASGOW MT     PTCLDY    37  33  85 E10       30.26S
6HR MIN TEMP:  36; 6HR MAX TEMP:  42;

GREAT FALLS MT CLEAR     43  31  62 S13       30.17F
6HR MIN TEMP:  38; 6HR MAX TEMP:  46;

CHEYENNE WY    CLOUDY    38  36  92 S5        30.33S
6HR MIN TEMP:  38; 6HR MAX TEMP:  40;

SCOTTSBLUFF NE CLOUDY    43  50 100 E5        30.35S
6HR MIN TEMP:  43; 6HR MAX TEMP:  47;

OMAHA NE       PTCLDY    41  37  86 NW6       30.20R
6HR MIN TEMP:  39; 6HR MAX TEMP:  46;

DES MOINES IA  PTCLDY    46  36  68 N5        30.17S
6HR MIN TEMP:  43; 6HR MAX TEMP:  52;

DAVENPORT IA   CLEAR     41  35  79 S5        30.15R
6HR MIN TEMP:  37; 6HR MAX TEMP:  46;

CHICAGO IL     MOSUNNY   39  34  82 CALM      30.16R
6HR MIN TEMP:  35; 6HR MAX TEMP:  41;

EAU CLAIRE WI  CLEAR     35  32  88 CALM      30.17S
6HR MIN TEMP:  33; 6HR MAX TEMP:  44;

LA CROSSE WI   CLEAR     43  35  73 E5        30.18R
6HR MIN TEMP:  40; 6HR MAX TEMP:  51;

$$

  *****  SOME NATIONAL WEATHER *****

CITY           SKY/WX    TMP DP  RH WIND       PRES   REMARKS
LA GUARDIA NY  MOSUNNY   53  37  54 N16G26    29.79R
6HR MIN TEMP:  51; 6HR MAX TEMP:  53;

RALEIGH NC     MOSUNNY   48  36  63 N6        29.98R
6HR MIN TEMP:  39; 6HR MAX TEMP:  48;

ATLANTA GA     PTSUNNY   54  39  57 E12       29.94R
6HR MIN TEMP:  53; 6HR MAX TEMP:  59;

NEW ORLEANS LA CLOUDY    65  62  90 E5        29.79R
6HR MIN TEMP:  64; 6HR MAX TEMP:  70; 6HR PCP: TRACE;

OKLAHOMA CITY  CLOUDY    51  45  79 N9        30.12R
6HR MIN TEMP:  49; 6HR MAX TEMP:  51; 6HR PCP: TRACE;

ALBUQUERQUE NM PTCLDY    43  35  73 E3        30.30R
6HR MIN TEMP:  43; 6HR MAX TEMP:  49;

SALT LAKE CITY CLEAR     45  37  73 SE3       30.22S
6HR MIN TEMP:  45; 6HR MAX TEMP:  49;

LOS ANGELES CA CLEAR     59  41  51 CALM      29.94F
6HR MIN TEMP:  56; 6HR MAX TEMP:  66;



USA.gov is the U.S. government's official web portal to all federal, state and local government web resources and services.